owner,sensor,date,latitude,longitude,air_temperature,qcFlag 
WAVCIS,ioos:station:WAVCIS:CSI09:1,2008-03-01T00:00:00Z,29.1015,-89.9782,17.08,11111222 
WAVCIS,ioos:station:WAVCIS:CSI09:1,2008-03-01T01:00:00Z,29.1015,-89.9782,17.69,11111222 
WAVCIS,ioos:station:WAVCIS:CSI09:1,2008-03-01T02:00:00Z,29.1015,-89.9782,18.07,11111222 
WAVCIS,ioos:station:WAVCIS:CSI09:1,2008-03-01T03:00:00Z,29.1015,-89.9782,18.19,11111222 
WAVCIS,ioos:station:WAVCIS:CSI09:1,2008-03-01T04:00:00Z,29.1015,-89.9782,18.12,11111222 
WAVCIS,ioos:station:WAVCIS:CSI09:1,2008-03-01T05:00:00Z,29.1015,-89.9782,17.96,11111222 
WAVCIS,ioos:station:WAVCIS:CSI09:1,2008-03-01T06:00:00Z,29.1015,-89.9782,17.67,11111222 
WAVCIS,ioos:station:WAVCIS:CSI09:1,2008-03-01T07:00:00Z,29.1015,-89.9782,17.77,11111222 
WAVCIS,ioos:station:WAVCIS:CSI09:1,2008-03-01T08:00:00Z,29.1015,-89.9782,17.63,11111222 
WAVCIS,ioos:station:WAVCIS:CSI09:1,2008-03-01T09:00:00Z,29.1015,-89.9782,17.92,11111222 
WAVCIS,ioos:station:WAVCIS:CSI09:1,2008-03-01T10:00:00Z,29.1015,-89.9782,17.97,11111222 
WAVCIS,ioos:station:WAVCIS:CSI09:1,2008-03-01T11:00:00Z,29.1015,-89.9782,17.3,11111222 
WAVCIS,ioos:station:WAVCIS:CSI09:1,2008-03-01T12:00:00Z,29.1015,-89.9782,17.19,11111222 
WAVCIS,ioos:station:WAVCIS:CSI09:1,2008-03-01T13:00:00Z,29.1015,-89.9782,18.04,11111222 
WAVCIS,ioos:station:WAVCIS:CSI09:1,2008-03-01T14:00:00Z,29.1015,-89.9782,19.06,11111222 
WAVCIS,ioos:station:WAVCIS:CSI09:1,2008-03-01T15:00:00Z,29.1015,-89.9782,18.7,11111222 
WAVCIS,ioos:station:WAVCIS:CSI09:1,2008-03-01T16:00:00Z,29.1015,-89.9782,18.6,11111222 
WAVCIS,ioos:station:WAVCIS:CSI09:1,2008-03-01T17:00:00Z,29.1015,-89.9782,19.22,11111222 
WAVCIS,ioos:station:WAVCIS:CSI09:1,2008-03-01T18:00:00Z,29.1015,-89.9782,18.63,11111222 
WAVCIS,ioos:station:WAVCIS:CSI09:1,2008-03-01T19:00:00Z,29.1015,-89.9782,19.16,11111222 
WAVCIS,ioos:station:WAVCIS:CSI09:1,2008-03-01T20:00:00Z,29.1015,-89.9782,19.42,11111222 
WAVCIS,ioos:station:WAVCIS:CSI09:1,2008-03-01T21:00:00Z,29.1015,-89.9782,19.9,11111222 
WAVCIS,ioos:station:WAVCIS:CSI09:1,2008-03-01T22:00:00Z,29.1015,-89.9782,19.38,11111222 
WAVCIS,ioos:station:WAVCIS:CSI09:1,2008-03-01T23:00:00Z,29.1015,-89.9782,18.79,11111222 
WAVCIS,ioos:station:WAVCIS:CSI09:1,2008-03-02T00:00:00Z,29.1015,-89.9782,18.09,11111222 
WAVCIS,ioos:station:WAVCIS:CSI09:1,2008-03-02T01:00:00Z,29.1015,-89.9782,17.79,11111222 
WAVCIS,ioos:station:WAVCIS:CSI09:1,2008-03-02T02:00:00Z,29.1015,-89.9782,17.58,11111222 
WAVCIS,ioos:station:WAVCIS:CSI09:1,2008-03-02T03:00:00Z,29.1015,-89.9782,17.41,11111222 
WAVCIS,ioos:station:WAVCIS:CSI09:1,2008-03-02T04:00:00Z,29.1015,-89.9782,17.39,11111222 
WAVCIS,ioos:station:WAVCIS:CSI09:1,2008-03-02T05:00:00Z,29.1015,-89.9782,17.38,11111222 
WAVCIS,ioos:station:WAVCIS:CSI09:1,2008-03-02T06:00:00Z,29.1015,-89.9782,17.34,11111222 
WAVCIS,ioos:station:WAVCIS:CSI09:1,2008-03-02T07:00:00Z,29.1015,-89.9782,17.28,11111222 
WAVCIS,ioos:station:WAVCIS:CSI09:1,2008-03-02T08:00:00Z,29.1015,-89.9782,17.17,11111222 
WAVCIS,ioos:station:WAVCIS:CSI09:1,2008-03-02T09:00:00Z,29.1015,-89.9782,17.15,11111222 
WAVCIS,ioos:station:WAVCIS:CSI09:1,2008-03-02T10:00:00Z,29.1015,-89.9782,17.26,11111222 
WAVCIS,ioos:station:WAVCIS:CSI09:1,2008-03-02T11:00:00Z,29.1015,-89.9782,17.13,11111222 
WAVCIS,ioos:station:WAVCIS:CSI09:1,2008-03-02T12:00:00Z,29.1015,-89.9782,17.06,11111222 
WAVCIS,ioos:station:WAVCIS:CSI09:1,2008-03-02T13:00:00Z,29.1015,-89.9782,17.37,11111222 
WAVCIS,ioos:station:WAVCIS:CSI09:1,2008-03-02T14:00:00Z,29.1015,-89.9782,17.31,11111222 
WAVCIS,ioos:station:WAVCIS:CSI09:1,2008-03-02T15:00:00Z,29.1015,-89.9782,17.46,11111222 
WAVCIS,ioos:station:WAVCIS:CSI09:1,2008-03-02T16:00:00Z,29.1015,-89.9782,17.79,11111222 
WAVCIS,ioos:station:WAVCIS:CSI09:1,2008-03-02T17:00:00Z,29.1015,-89.9782,17.79,11111222 
WAVCIS,ioos:station:WAVCIS:CSI09:1,2008-03-02T18:00:00Z,29.1015,-89.9782,18.05,11111222 
WAVCIS,ioos:station:WAVCIS:CSI09:1,2008-03-02T19:00:00Z,29.1015,-89.9782,18.12,11111222 
WAVCIS,ioos:station:WAVCIS:CSI09:1,2008-03-02T20:00:00Z,29.1015,-89.9782,18.38,11111222 
WAVCIS,ioos:station:WAVCIS:CSI09:1,2008-03-02T21:00:00Z,29.1015,-89.9782,18.52,11111222 
WAVCIS,ioos:station:WAVCIS:CSI09:1,2008-03-02T22:00:00Z,29.1015,-89.9782,18.75,11111222 
WAVCIS,ioos:station:WAVCIS:CSI09:1,2008-03-02T23:00:00Z,29.1015,-89.9782,18.51,11111222 
WAVCIS,ioos:station:WAVCIS:CSI09:1,2008-03-03T00:00:00Z,29.1015,-89.9782,18.09,11111222 
WAVCIS,ioos:station:WAVCIS:CSI09:1,2008-03-03T01:00:00Z,29.1015,-89.9782,18.35,11111222 
WAVCIS,ioos:station:WAVCIS:CSI09:1,2008-03-03T02:00:00Z,29.1015,-89.9782,18.37,11111222 
WAVCIS,ioos:station:WAVCIS:CSI09:1,2008-03-03T03:00:00Z,29.1015,-89.9782,18.52,11111222 
WAVCIS,ioos:station:WAVCIS:CSI09:1,2008-03-03T04:00:00Z,29.1015,-89.9782,18.75,11111222 
WAVCIS,ioos:station:WAVCIS:CSI09:1,2008-03-03T05:00:00Z,29.1015,-89.9782,18.92,11111222 
WAVCIS,ioos:station:WAVCIS:CSI09:1,2008-03-03T06:00:00Z,29.1015,-89.9782,19.06,11111222 
WAVCIS,ioos:station:WAVCIS:CSI09:1,2008-03-03T07:00:00Z,29.1015,-89.9782,19.17,11111222 
WAVCIS,ioos:station:WAVCIS:CSI09:1,2008-03-03T08:00:00Z,29.1015,-89.9782,18.89,11111222 
WAVCIS,ioos:station:WAVCIS:CSI09:1,2008-03-03T09:00:00Z,29.1015,-89.9782,18.95,11111222 
WAVCIS,ioos:station:WAVCIS:CSI09:1,2008-03-03T10:00:00Z,29.1015,-89.9782,19.18,11111222 
WAVCIS,ioos:station:WAVCIS:CSI09:1,2008-03-03T11:00:00Z,29.1015,-89.9782,19.04,11111222 
WAVCIS,ioos:station:WAVCIS:CSI09:1,2008-03-03T12:00:00Z,29.1015,-89.9782,19.34,11111222 
WAVCIS,ioos:station:WAVCIS:CSI09:1,2008-03-03T13:00:00Z,29.1015,-89.9782,19.44,11111222 
WAVCIS,ioos:station:WAVCIS:CSI09:1,2008-03-03T14:00:00Z,29.1015,-89.9782,19.72,11111222 
WAVCIS,ioos:station:WAVCIS:CSI09:1,2008-03-03T15:00:00Z,29.1015,-89.9782,20.12,11111222 
WAVCIS,ioos:station:WAVCIS:CSI09:1,2008-03-03T16:00:00Z,29.1015,-89.9782,20.01,11111222 
WAVCIS,ioos:station:WAVCIS:CSI09:1,2008-03-03T17:00:00Z,29.1015,-89.9782,20.14,11111222 
WAVCIS,ioos:station:WAVCIS:CSI09:1,2008-03-03T18:00:00Z,29.1015,-89.9782,20.36,11111222 
WAVCIS,ioos:station:WAVCIS:CSI09:1,2008-03-03T19:00:00Z,29.1015,-89.9782,20.47,11111222 
WAVCIS,ioos:station:WAVCIS:CSI09:1,2008-03-03T20:00:00Z,29.1015,-89.9782,20.44,11111222 
WAVCIS,ioos:station:WAVCIS:CSI09:1,2008-03-03T21:00:00Z,29.1015,-89.9782,20.71,11111222 
WAVCIS,ioos:station:WAVCIS:CSI09:1,2008-03-03T22:00:00Z,29.1015,-89.9782,20.59,11111222 
WAVCIS,ioos:station:WAVCIS:CSI09:1,2008-03-03T23:00:00Z,29.1015,-89.9782,20.95,11111222 
WAVCIS,ioos:station:WAVCIS:CSI09:1,2008-03-04T00:00:00Z,29.1015,-89.9782,20.93,11111222 
WAVCIS,ioos:station:WAVCIS:CSI09:1,2008-03-04T01:00:00Z,29.1015,-89.9782,20.85,11111222 
WAVCIS,ioos:station:WAVCIS:CSI09:1,2008-03-04T02:00:00Z,29.1015,-89.9782,20.93,11111222 
WAVCIS,ioos:station:WAVCIS:CSI09:1,2008-03-04T03:00:00Z,29.1015,-89.9782,21.16,11111222 
WAVCIS,ioos:station:WAVCIS:CSI09:1,2008-03-04T04:00:00Z,29.1015,-89.9782,21.56,11111222 
WAVCIS,ioos:station:WAVCIS:CSI09:1,2008-03-04T05:00:00Z,29.1015,-89.9782,21.44,11111222 
WAVCIS,ioos:station:WAVCIS:CSI09:1,2008-03-04T06:00:00Z,29.1015,-89.9782,18.6,11111222 
WAVCIS,ioos:station:WAVCIS:CSI09:1,2008-03-04T07:00:00Z,29.1015,-89.9782,16.04,11111222 
WAVCIS,ioos:station:WAVCIS:CSI09:1,2008-03-04T08:00:00Z,29.1015,-89.9782,15.6,11111222 
WAVCIS,ioos:station:WAVCIS:CSI09:1,2008-03-04T09:00:00Z,29.1015,-89.9782,14.41,11111222 
WAVCIS,ioos:station:WAVCIS:CSI09:1,2008-03-04T10:00:00Z,29.1015,-89.9782,12.87,11111222 
WAVCIS,ioos:station:WAVCIS:CSI09:1,2008-03-04T11:00:00Z,29.1015,-89.9782,11.91,11111222 
WAVCIS,ioos:station:WAVCIS:CSI09:1,2008-03-04T12:00:00Z,29.1015,-89.9782,10.98,11111222 
WAVCIS,ioos:station:WAVCIS:CSI09:1,2008-03-04T13:00:00Z,29.1015,-89.9782,9.8,11111222 
WAVCIS,ioos:station:WAVCIS:CSI09:1,2008-03-04T14:00:00Z,29.1015,-89.9782,8.93,11111222 
WAVCIS,ioos:station:WAVCIS:CSI09:1,2008-03-04T15:00:00Z,29.1015,-89.9782,8.81,11111222 
WAVCIS,ioos:station:WAVCIS:CSI09:1,2008-03-04T16:00:00Z,29.1015,-89.9782,8.55,11111222 
WAVCIS,ioos:station:WAVCIS:CSI09:1,2008-03-04T17:00:00Z,29.1015,-89.9782,8.83,11111222 
WAVCIS,ioos:station:WAVCIS:CSI09:1,2008-03-04T18:00:00Z,29.1015,-89.9782,9.07,11111222 
WAVCIS,ioos:station:WAVCIS:CSI09:1,2008-03-04T19:00:00Z,29.1015,-89.9782,9.42,11111222 
WAVCIS,ioos:station:WAVCIS:CSI09:1,2008-03-04T20:00:00Z,29.1015,-89.9782,10.15,11111222 
WAVCIS,ioos:station:WAVCIS:CSI09:1,2008-03-04T21:00:00Z,29.1015,-89.9782,10.95,11111222 
WAVCIS,ioos:station:WAVCIS:CSI09:1,2008-03-04T22:00:00Z,29.1015,-89.9782,11.52,11111222 
WAVCIS,ioos:station:WAVCIS:CSI09:1,2008-03-04T23:00:00Z,29.1015,-89.9782,12.06,11111222 
WAVCIS,ioos:station:WAVCIS:CSI09:1,2008-03-05T00:00:00Z,29.1015,-89.9782,11.99,11111222 
WAVCIS,ioos:station:WAVCIS:CSI09:1,2008-03-05T01:00:00Z,29.1015,-89.9782,11.97,11111222 
WAVCIS,ioos:station:WAVCIS:CSI09:1,2008-03-05T02:00:00Z,29.1015,-89.9782,11.75,11111222 
WAVCIS,ioos:station:WAVCIS:CSI09:1,2008-03-05T03:00:00Z,29.1015,-89.9782,11.66,11111222 
WAVCIS,ioos:station:WAVCIS:CSI09:1,2008-03-05T05:00:00Z,29.1015,-89.9782,11.29,11111222 
WAVCIS,ioos:station:WAVCIS:CSI09:1,2008-03-05T06:00:00Z,29.1015,-89.9782,11.04,11111222 
WAVCIS,ioos:station:WAVCIS:CSI09:1,2008-03-05T07:00:00Z,29.1015,-89.9782,10.76,11111222 
WAVCIS,ioos:station:WAVCIS:CSI09:1,2008-03-05T08:00:00Z,29.1015,-89.9782,10.65,11111222 
WAVCIS,ioos:station:WAVCIS:CSI09:1,2008-03-05T10:00:00Z,29.1015,-89.9782,10.59,11111222 
WAVCIS,ioos:station:WAVCIS:CSI09:1,2008-03-05T11:00:00Z,29.1015,-89.9782,10.79,11111222 
WAVCIS,ioos:station:WAVCIS:CSI09:1,2008-03-05T13:00:00Z,29.1015,-89.9782,10.73,11111222 
WAVCIS,ioos:station:WAVCIS:CSI09:1,2008-03-05T14:00:00Z,29.1015,-89.9782,11.23,11111222 
WAVCIS,ioos:station:WAVCIS:CSI09:1,2008-03-05T15:00:00Z,29.1015,-89.9782,11.38,11111222 
WAVCIS,ioos:station:WAVCIS:CSI09:1,2008-03-05T17:00:00Z,29.1015,-89.9782,11.59,11111222 
WAVCIS,ioos:station:WAVCIS:CSI09:1,2008-03-05T18:00:00Z,29.1015,-89.9782,12.07,11111222 
WAVCIS,ioos:station:WAVCIS:CSI09:1,2008-03-05T19:00:00Z,29.1015,-89.9782,13.31,11111222 
WAVCIS,ioos:station:WAVCIS:CSI09:1,2008-03-05T20:00:00Z,29.1015,-89.9782,12.1,11111222 
WAVCIS,ioos:station:WAVCIS:CSI09:1,2008-03-05T21:00:00Z,29.1015,-89.9782,13.58,11111222 
WAVCIS,ioos:station:WAVCIS:CSI09:1,2008-03-05T22:00:00Z,29.1015,-89.9782,13.89,11111222 
WAVCIS,ioos:station:WAVCIS:CSI09:1,2008-03-05T23:00:00Z,29.1015,-89.9782,14.54,11111222 
WAVCIS,ioos:station:WAVCIS:CSI09:1,2008-03-06T00:00:00Z,29.1015,-89.9782,12.71,11111222 
WAVCIS,ioos:station:WAVCIS:CSI09:1,2008-03-06T01:00:00Z,29.1015,-89.9782,12.3,11111222 
WAVCIS,ioos:station:WAVCIS:CSI09:1,2008-03-06T02:00:00Z,29.1015,-89.9782,12.6,11111222 
WAVCIS,ioos:station:WAVCIS:CSI09:1,2008-03-06T03:00:00Z,29.1015,-89.9782,12.74,11111222 
WAVCIS,ioos:station:WAVCIS:CSI09:1,2008-03-06T04:00:00Z,29.1015,-89.9782,12.96,11111222 
WAVCIS,ioos:station:WAVCIS:CSI09:1,2008-03-06T05:00:00Z,29.1015,-89.9782,13.16,11111222 
WAVCIS,ioos:station:WAVCIS:CSI09:1,2008-03-06T06:00:00Z,29.1015,-89.9782,13.12,11111222 
WAVCIS,ioos:station:WAVCIS:CSI09:1,2008-03-06T07:00:00Z,29.1015,-89.9782,13.13,11111222 
WAVCIS,ioos:station:WAVCIS:CSI09:1,2008-03-06T08:00:00Z,29.1015,-89.9782,13.25,11111222 
WAVCIS,ioos:station:WAVCIS:CSI09:1,2008-03-06T09:00:00Z,29.1015,-89.9782,13.65,11111222 
WAVCIS,ioos:station:WAVCIS:CSI09:1,2008-03-06T12:00:00Z,29.1015,-89.9782,14.15,11111222 
WAVCIS,ioos:station:WAVCIS:CSI09:1,2008-03-06T13:00:00Z,29.1015,-89.9782,14.04,11111222 
WAVCIS,ioos:station:WAVCIS:CSI09:1,2008-03-06T14:00:00Z,29.1015,-89.9782,14.18,11111222 
WAVCIS,ioos:station:WAVCIS:CSI09:1,2008-03-06T15:00:00Z,29.1015,-89.9782,14.21,11111222 
WAVCIS,ioos:station:WAVCIS:CSI09:1,2008-03-06T16:00:00Z,29.1015,-89.9782,14.69,11111222 
WAVCIS,ioos:station:WAVCIS:CSI09:1,2008-03-06T17:00:00Z,29.1015,-89.9782,14.87,11111222 
WAVCIS,ioos:station:WAVCIS:CSI09:1,2008-03-06T18:00:00Z,29.1015,-89.9782,14.97,11111222 
WAVCIS,ioos:station:WAVCIS:CSI09:1,2008-03-06T19:00:00Z,29.1015,-89.9782,15.34,11111222 
WAVCIS,ioos:station:WAVCIS:CSI09:1,2008-03-06T20:00:00Z,29.1015,-89.9782,15.6,11111222 
WAVCIS,ioos:station:WAVCIS:CSI09:1,2008-03-06T21:00:00Z,29.1015,-89.9782,16.07,11111222 
WAVCIS,ioos:station:WAVCIS:CSI09:1,2008-03-06T22:00:00Z,29.1015,-89.9782,16.19,11111222 
WAVCIS,ioos:station:WAVCIS:CSI09:1,2008-03-06T23:00:00Z,29.1015,-89.9782,16.3,11111222 
WAVCIS,ioos:station:WAVCIS:CSI09:1,2008-03-07T00:00:00Z,29.1015,-89.9782,16.5,11111222 
WAVCIS,ioos:station:WAVCIS:CSI09:1,2008-03-07T12:00:00Z,29.1015,-89.9782,14.47,11111222 
WAVCIS,ioos:station:WAVCIS:CSI09:1,2008-03-07T13:00:00Z,29.1015,-89.9782,13.51,11111222 
WAVCIS,ioos:station:WAVCIS:CSI09:1,2008-03-07T14:00:00Z,29.1015,-89.9782,13.09,11111222 
WAVCIS,ioos:station:WAVCIS:CSI09:1,2008-03-07T15:00:00Z,29.1015,-89.9782,13.15,11111222 
WAVCIS,ioos:station:WAVCIS:CSI09:1,2008-03-07T17:00:00Z,29.1015,-89.9782,12.81,11111222 
WAVCIS,ioos:station:WAVCIS:CSI09:1,2008-03-07T18:00:00Z,29.1015,-89.9782,12.27,11111222 
WAVCIS,ioos:station:WAVCIS:CSI09:1,2008-03-07T19:00:00Z,29.1015,-89.9782,11.17,11111222 
WAVCIS,ioos:station:WAVCIS:CSI09:1,2008-03-07T20:00:00Z,29.1015,-89.9782,11.73,11111222 
WAVCIS,ioos:station:WAVCIS:CSI09:1,2008-03-07T21:00:00Z,29.1015,-89.9782,11.44,11111222 
WAVCIS,ioos:station:WAVCIS:CSI09:1,2008-03-07T22:00:00Z,29.1015,-89.9782,11.34,11111222 
WAVCIS,ioos:station:WAVCIS:CSI09:1,2008-03-07T23:00:00Z,29.1015,-89.9782,10.45,11111222 
WAVCIS,ioos:station:WAVCIS:CSI09:1,2008-03-08T00:00:00Z,29.1015,-89.9782,9.26,11111222 
WAVCIS,ioos:station:WAVCIS:CSI09:1,2008-03-08T01:00:00Z,29.1015,-89.9782,7.34,11111222 
WAVCIS,ioos:station:WAVCIS:CSI09:1,2008-03-08T02:00:00Z,29.1015,-89.9782,8.18,11111222 
WAVCIS,ioos:station:WAVCIS:CSI09:1,2008-03-08T03:00:00Z,29.1015,-89.9782,7.18,11111222 
WAVCIS,ioos:station:WAVCIS:CSI09:1,2008-03-08T04:00:00Z,29.1015,-89.9782,5.675,11111222 
WAVCIS,ioos:station:WAVCIS:CSI09:1,2008-03-08T05:00:00Z,29.1015,-89.9782,5.105,11111222 
WAVCIS,ioos:station:WAVCIS:CSI09:1,2008-03-08T06:00:00Z,29.1015,-89.9782,4.224,11111222 
WAVCIS,ioos:station:WAVCIS:CSI09:1,2008-03-08T07:00:00Z,29.1015,-89.9782,4.52,11111222 
WAVCIS,ioos:station:WAVCIS:CSI09:1,2008-03-08T08:00:00Z,29.1015,-89.9782,4.517,11111222 
WAVCIS,ioos:station:WAVCIS:CSI09:1,2008-03-08T09:00:00Z,29.1015,-89.9782,4.696,11111222 
WAVCIS,ioos:station:WAVCIS:CSI09:1,2008-03-08T10:00:00Z,29.1015,-89.9782,4.934,11111222 
WAVCIS,ioos:station:WAVCIS:CSI09:1,2008-03-08T11:00:00Z,29.1015,-89.9782,5.022,11111222 
WAVCIS,ioos:station:WAVCIS:CSI09:1,2008-03-08T12:00:00Z,29.1015,-89.9782,5.277,11111222 
WAVCIS,ioos:station:WAVCIS:CSI09:1,2008-03-08T13:00:00Z,29.1015,-89.9782,4.97,11111222 
WAVCIS,ioos:station:WAVCIS:CSI09:1,2008-03-08T14:00:00Z,29.1015,-89.9782,5.03,11111222 
WAVCIS,ioos:station:WAVCIS:CSI09:1,2008-03-08T15:00:00Z,29.1015,-89.9782,5.965,11111222 
WAVCIS,ioos:station:WAVCIS:CSI09:1,2008-03-08T16:00:00Z,29.1015,-89.9782,7.67,11111222 
WAVCIS,ioos:station:WAVCIS:CSI09:1,2008-03-08T17:00:00Z,29.1015,-89.9782,9.0,11111222 
WAVCIS,ioos:station:WAVCIS:CSI09:1,2008-03-08T18:00:00Z,29.1015,-89.9782,8.81,11111222 
WAVCIS,ioos:station:WAVCIS:CSI09:1,2008-03-08T19:00:00Z,29.1015,-89.9782,9.62,11111222 
WAVCIS,ioos:station:WAVCIS:CSI09:1,2008-03-08T20:00:00Z,29.1015,-89.9782,9.71,11111222 
WAVCIS,ioos:station:WAVCIS:CSI09:1,2008-03-08T21:00:00Z,29.1015,-89.9782,10.76,11111222 
WAVCIS,ioos:station:WAVCIS:CSI09:1,2008-03-08T22:00:00Z,29.1015,-89.9782,10.59,11111222 
WAVCIS,ioos:station:WAVCIS:CSI09:1,2008-03-08T23:00:00Z,29.1015,-89.9782,12.02,11111222 
WAVCIS,ioos:station:WAVCIS:CSI09:1,2008-03-09T00:00:00Z,29.1015,-89.9782,10.92,11111222 
WAVCIS,ioos:station:WAVCIS:CSI09:1,2008-03-09T01:00:00Z,29.1015,-89.9782,10.48,11111222 
WAVCIS,ioos:station:WAVCIS:CSI09:1,2008-03-09T02:00:00Z,29.1015,-89.9782,10.8,11111222 
WAVCIS,ioos:station:WAVCIS:CSI09:1,2008-03-09T03:00:00Z,29.1015,-89.9782,10.97,11111222 
WAVCIS,ioos:station:WAVCIS:CSI09:1,2008-03-09T04:00:00Z,29.1015,-89.9782,11.15,11111222 
WAVCIS,ioos:station:WAVCIS:CSI09:1,2008-03-09T05:00:00Z,29.1015,-89.9782,11.36,11111222 
WAVCIS,ioos:station:WAVCIS:CSI09:1,2008-03-09T06:00:00Z,29.1015,-89.9782,11.63,11111222 
WAVCIS,ioos:station:WAVCIS:CSI09:1,2008-03-09T07:00:00Z,29.1015,-89.9782,12.16,11111222 
WAVCIS,ioos:station:WAVCIS:CSI09:1,2008-03-09T08:00:00Z,29.1015,-89.9782,12.5,11111222 
WAVCIS,ioos:station:WAVCIS:CSI09:1,2008-03-09T09:00:00Z,29.1015,-89.9782,12.72,11111222 
WAVCIS,ioos:station:WAVCIS:CSI09:1,2008-03-09T10:00:00Z,29.1015,-89.9782,13.07,11111222 
WAVCIS,ioos:station:WAVCIS:CSI09:1,2008-03-09T11:00:00Z,29.1015,-89.9782,12.99,11111222 
WAVCIS,ioos:station:WAVCIS:CSI09:1,2008-03-09T12:00:00Z,29.1015,-89.9782,13.05,11111222 
WAVCIS,ioos:station:WAVCIS:CSI09:1,2008-03-09T13:00:00Z,29.1015,-89.9782,13.35,11111222 
WAVCIS,ioos:station:WAVCIS:CSI09:1,2008-03-09T14:00:00Z,29.1015,-89.9782,13.59,11111222 
WAVCIS,ioos:station:WAVCIS:CSI09:1,2008-03-09T15:00:00Z,29.1015,-89.9782,13.69,11111222 
WAVCIS,ioos:station:WAVCIS:CSI09:1,2008-03-09T16:00:00Z,29.1015,-89.9782,13.86,11111222 
WAVCIS,ioos:station:WAVCIS:CSI09:1,2008-03-09T17:00:00Z,29.1015,-89.9782,14.34,11111222 
WAVCIS,ioos:station:WAVCIS:CSI09:1,2008-03-09T18:00:00Z,29.1015,-89.9782,14.62,11111222 
WAVCIS,ioos:station:WAVCIS:CSI09:1,2008-03-09T19:00:00Z,29.1015,-89.9782,15.07,11111222 
WAVCIS,ioos:station:WAVCIS:CSI09:1,2008-03-09T20:00:00Z,29.1015,-89.9782,15.36,11111222 
WAVCIS,ioos:station:WAVCIS:CSI09:1,2008-03-09T21:00:00Z,29.1015,-89.9782,15.88,11111222 
WAVCIS,ioos:station:WAVCIS:CSI09:1,2008-03-09T22:00:00Z,29.1015,-89.9782,16.09,11111222 
WAVCIS,ioos:station:WAVCIS:CSI09:1,2008-03-09T23:00:00Z,29.1015,-89.9782,15.75,11111222 
WAVCIS,ioos:station:WAVCIS:CSI09:1,2008-03-10T00:00:00Z,29.1015,-89.9782,15.8,11111222 
WAVCIS,ioos:station:WAVCIS:CSI09:1,2008-03-10T01:00:00Z,29.1015,-89.9782,15.99,11111222 
WAVCIS,ioos:station:WAVCIS:CSI09:1,2008-03-10T02:00:00Z,29.1015,-89.9782,16.12,11111222 
WAVCIS,ioos:station:WAVCIS:CSI09:1,2008-03-10T03:00:00Z,29.1015,-89.9782,16.15,11111222 
WAVCIS,ioos:station:WAVCIS:CSI09:1,2008-03-10T04:00:00Z,29.1015,-89.9782,16.36,11111222 
WAVCIS,ioos:station:WAVCIS:CSI09:1,2008-03-10T05:00:00Z,29.1015,-89.9782,16.5,11111222 
WAVCIS,ioos:station:WAVCIS:CSI09:1,2008-03-10T06:00:00Z,29.1015,-89.9782,16.62,11111222 
WAVCIS,ioos:station:WAVCIS:CSI09:1,2008-03-10T07:00:00Z,29.1015,-89.9782,16.87,11111222 
WAVCIS,ioos:station:WAVCIS:CSI09:1,2008-03-10T08:00:00Z,29.1015,-89.9782,16.75,11111222 
WAVCIS,ioos:station:WAVCIS:CSI09:1,2008-03-10T09:00:00Z,29.1015,-89.9782,16.77,11111222 
WAVCIS,ioos:station:WAVCIS:CSI09:1,2008-03-10T10:00:00Z,29.1015,-89.9782,16.8,11111222 
WAVCIS,ioos:station:WAVCIS:CSI09:1,2008-03-10T11:00:00Z,29.1015,-89.9782,17.04,11111222 
WAVCIS,ioos:station:WAVCIS:CSI09:1,2008-03-10T12:00:00Z,29.1015,-89.9782,16.85,11111222 
WAVCIS,ioos:station:WAVCIS:CSI09:1,2008-03-10T13:00:00Z,29.1015,-89.9782,16.71,11111222 
WAVCIS,ioos:station:WAVCIS:CSI09:1,2008-03-10T14:00:00Z,29.1015,-89.9782,17.11,11111222 
WAVCIS,ioos:station:WAVCIS:CSI09:1,2008-03-10T15:00:00Z,29.1015,-89.9782,17.47,11111222 
WAVCIS,ioos:station:WAVCIS:CSI09:1,2008-03-10T16:00:00Z,29.1015,-89.9782,17.47,11111222 
WAVCIS,ioos:station:WAVCIS:CSI09:1,2008-03-10T17:00:00Z,29.1015,-89.9782,17.43,11111222 
WAVCIS,ioos:station:WAVCIS:CSI09:1,2008-03-10T18:00:00Z,29.1015,-89.9782,17.81,11111222 
WAVCIS,ioos:station:WAVCIS:CSI09:1,2008-03-10T19:00:00Z,29.1015,-89.9782,17.72,11111222 
WAVCIS,ioos:station:WAVCIS:CSI09:1,2008-03-10T20:00:00Z,29.1015,-89.9782,17.87,11111222 
WAVCIS,ioos:station:WAVCIS:CSI09:1,2008-03-10T21:00:00Z,29.1015,-89.9782,18.11,11111222 
WAVCIS,ioos:station:WAVCIS:CSI09:1,2008-03-10T22:00:00Z,29.1015,-89.9782,18.39,11111222 
WAVCIS,ioos:station:WAVCIS:CSI09:1,2008-03-10T23:00:00Z,29.1015,-89.9782,17.86,11111222 
WAVCIS,ioos:station:WAVCIS:CSI09:1,2008-03-11T00:00:00Z,29.1015,-89.9782,17.89,11111222 
WAVCIS,ioos:station:WAVCIS:CSI09:1,2008-03-11T01:00:00Z,29.1015,-89.9782,17.66,11111222 
WAVCIS,ioos:station:WAVCIS:CSI09:1,2008-03-11T02:00:00Z,29.1015,-89.9782,17.54,11111222 
WAVCIS,ioos:station:WAVCIS:CSI09:1,2008-03-11T03:00:00Z,29.1015,-89.9782,17.69,11111222 
WAVCIS,ioos:station:WAVCIS:CSI09:1,2008-03-11T04:00:00Z,29.1015,-89.9782,17.71,11111222 
WAVCIS,ioos:station:WAVCIS:CSI09:1,2008-03-11T05:00:00Z,29.1015,-89.9782,17.72,11111222 
WAVCIS,ioos:station:WAVCIS:CSI09:1,2008-03-11T06:00:00Z,29.1015,-89.9782,17.5,11111222 
WAVCIS,ioos:station:WAVCIS:CSI09:1,2008-03-11T07:00:00Z,29.1015,-89.9782,17.45,11111222 
WAVCIS,ioos:station:WAVCIS:CSI09:1,2008-03-11T08:00:00Z,29.1015,-89.9782,17.17,11111222 
WAVCIS,ioos:station:WAVCIS:CSI09:1,2008-03-11T09:00:00Z,29.1015,-89.9782,17.11,11111222 
WAVCIS,ioos:station:WAVCIS:CSI09:1,2008-03-11T10:00:00Z,29.1015,-89.9782,15.82,11111222 
WAVCIS,ioos:station:WAVCIS:CSI09:1,2008-03-11T11:00:00Z,29.1015,-89.9782,16.32,11111222 
WAVCIS,ioos:station:WAVCIS:CSI09:1,2008-03-11T12:00:00Z,29.1015,-89.9782,16.54,11111222 
WAVCIS,ioos:station:WAVCIS:CSI09:1,2008-03-11T13:00:00Z,29.1015,-89.9782,16.93,11111222 
WAVCIS,ioos:station:WAVCIS:CSI09:1,2008-03-11T14:00:00Z,29.1015,-89.9782,17.05,11111222 
WAVCIS,ioos:station:WAVCIS:CSI09:1,2008-03-11T15:00:00Z,29.1015,-89.9782,15.73,11111222 
WAVCIS,ioos:station:WAVCIS:CSI09:1,2008-03-11T16:00:00Z,29.1015,-89.9782,14.55,11111222 
WAVCIS,ioos:station:WAVCIS:CSI09:1,2008-03-11T17:00:00Z,29.1015,-89.9782,14.64,11111222 
WAVCIS,ioos:station:WAVCIS:CSI09:1,2008-03-11T18:00:00Z,29.1015,-89.9782,14.89,11111222 
WAVCIS,ioos:station:WAVCIS:CSI09:1,2008-03-11T19:00:00Z,29.1015,-89.9782,15.1,11111222 
WAVCIS,ioos:station:WAVCIS:CSI09:1,2008-03-11T20:00:00Z,29.1015,-89.9782,15.36,11111222 
WAVCIS,ioos:station:WAVCIS:CSI09:1,2008-03-11T21:00:00Z,29.1015,-89.9782,15.62,11111222 
WAVCIS,ioos:station:WAVCIS:CSI09:1,2008-03-11T22:00:00Z,29.1015,-89.9782,16.13,11111222 
WAVCIS,ioos:station:WAVCIS:CSI09:1,2008-03-11T23:00:00Z,29.1015,-89.9782,15.59,11111222 
WAVCIS,ioos:station:WAVCIS:CSI09:1,2008-03-12T00:00:00Z,29.1015,-89.9782,15.24,11111222 
WAVCIS,ioos:station:WAVCIS:CSI09:1,2008-03-12T01:00:00Z,29.1015,-89.9782,15.42,11111222 
WAVCIS,ioos:station:WAVCIS:CSI09:1,2008-03-12T02:00:00Z,29.1015,-89.9782,15.63,11111222 
WAVCIS,ioos:station:WAVCIS:CSI09:1,2008-03-12T03:00:00Z,29.1015,-89.9782,16.39,11111222 
WAVCIS,ioos:station:WAVCIS:CSI09:1,2008-03-12T04:00:00Z,29.1015,-89.9782,15.82,11111222 
WAVCIS,ioos:station:WAVCIS:CSI09:1,2008-03-12T05:00:00Z,29.1015,-89.9782,15.77,11111222 
WAVCIS,ioos:station:WAVCIS:CSI09:1,2008-03-12T06:00:00Z,29.1015,-89.9782,15.62,11111222 
WAVCIS,ioos:station:WAVCIS:CSI09:1,2008-03-12T07:00:00Z,29.1015,-89.9782,15.29,11111222 
WAVCIS,ioos:station:WAVCIS:CSI09:1,2008-03-12T08:00:00Z,29.1015,-89.9782,15.0,11111222 
WAVCIS,ioos:station:WAVCIS:CSI09:1,2008-03-12T09:00:00Z,29.1015,-89.9782,14.73,11111222 
WAVCIS,ioos:station:WAVCIS:CSI09:1,2008-03-12T10:00:00Z,29.1015,-89.9782,14.61,11111222 
WAVCIS,ioos:station:WAVCIS:CSI09:1,2008-03-12T11:00:00Z,29.1015,-89.9782,14.5,11111222 
WAVCIS,ioos:station:WAVCIS:CSI09:1,2008-03-12T12:00:00Z,29.1015,-89.9782,14.28,11111222 
WAVCIS,ioos:station:WAVCIS:CSI09:1,2008-03-12T13:00:00Z,29.1015,-89.9782,14.45,11111222 
WAVCIS,ioos:station:WAVCIS:CSI09:1,2008-03-12T14:00:00Z,29.1015,-89.9782,14.58,11111222 
WAVCIS,ioos:station:WAVCIS:CSI09:1,2008-03-12T15:00:00Z,29.1015,-89.9782,14.96,11111222 
WAVCIS,ioos:station:WAVCIS:CSI09:1,2008-03-12T16:00:00Z,29.1015,-89.9782,15.15,11111222 
WAVCIS,ioos:station:WAVCIS:CSI09:1,2008-03-12T17:00:00Z,29.1015,-89.9782,15.57,11111222 
WAVCIS,ioos:station:WAVCIS:CSI09:1,2008-03-12T18:00:00Z,29.1015,-89.9782,15.86,11111222 
WAVCIS,ioos:station:WAVCIS:CSI09:1,2008-03-12T19:00:00Z,29.1015,-89.9782,16.17,11111222 
WAVCIS,ioos:station:WAVCIS:CSI09:1,2008-03-12T20:00:00Z,29.1015,-89.9782,16.8,11111222 
WAVCIS,ioos:station:WAVCIS:CSI09:1,2008-03-12T21:00:00Z,29.1015,-89.9782,17.63,11111222 
WAVCIS,ioos:station:WAVCIS:CSI09:1,2008-03-12T22:00:00Z,29.1015,-89.9782,18.42,11111222 